Weather History for KBFI - July, 2012

Change the Weather History Date:

Saturday, July 14, 2012

  Actual Average Record
Temperature  
Mean Temperature 68 °F -  
Max Temperature 78 °F 74 °F 91 °F (1996)
Min Temperature 60 °F 55 °F 50 °F (1982)
Cooling Degree Days 4    
Growing Degree Days 18 (Base 50)    
Moisture  
Dew Point 59 °F    
Average Humidity 75    
Maximum Humidity 93    
Minimum Humidity 55    
Precipitation  
Precipitation 0.00 in - - ()
Sea Level Pressure  
Sea Level Pressure 29.95 in    
Wind  
Wind Speed 2 mph (SSW)    
Max Wind Speed 6 mph    
Max Gust Speed -    
Visibility 9 miles    
Events      
Averages and records for this station are not official NWS values.
T = Trace of Precipitation, MM = Missing Value Source: NWS Daily Summary

Daily Weather History Graph

Daily Weather History Graph

Search for Another Location

Airport or City:

Trip Planner

Search our weather history database for the weather conditions in past years. The results will help you decide how hot, cold, wet, or windy it might be!

Date:

Astronomy

Jul. 14, 2012 Rise Set
Actual Time 5:26 AM PDT 9:02 PM PDT
Civil Twilight 4:48 AM PDT 9:41 PM PDT
Nautical Twilight 3:56 AM PDT 10:33 PM PDT
Astronomical Twilight 2:44 AM PDT 11:43 PM PDT
Moon 1:47 AM PDT (7/14) 5:31 PM PDT (7/14)
Length of Visible Light 16h 53m
Length of Day
15h 35m
Waning Crescent, 18% of the Moon is Illuminated
Jul 14
Waning Crescent
Jul 18
New
Jul 26
First Quarter
Aug 1
Full
Aug 9
Last Quarter

Hourly Weather History & Observations

Time (PDT) Temp. Dew Point Humidity Pressure Visibility Wind Dir Wind Speed Gust Speed Precip Events Conditions
12:53 AM 64.9 °F 57.9 °F 78% 29.95 in 10.0 mi Calm Calm - N/A   Partly Cloudy
1:53 AM 64.9 °F 59.0 °F 81% 29.94 in 10.0 mi Calm Calm - N/A   Clear
2:53 AM 63.0 °F 59.0 °F 87% 29.94 in 10.0 mi Calm Calm - N/A   Clear
3:53 AM 61.0 °F 57.9 °F 90% 29.94 in 10.0 mi Calm Calm - N/A   Clear
4:18 AM 60.8 °F 57.2 °F 88% 29.95 in 10.0 mi Calm Calm - N/A   Mostly Cloudy
4:53 AM 61.0 °F 57.9 °F 90% 29.95 in 10.0 mi Calm Calm - N/A   Overcast
5:53 AM 62.1 °F 57.9 °F 86% 29.96 in 4.0 mi NNW 3.5 mph - N/A   Overcast
6:53 AM 60.1 °F 57.9 °F 93% 29.96 in 4.0 mi Variable 5.8 mph - N/A   Overcast
7:53 AM 61.0 °F 59.0 °F 93% 29.97 in 3.0 mi Calm Calm - N/A   Overcast
8:53 AM 63.0 °F 59.0 °F 87% 29.99 in 8.0 mi Variable 3.5 mph - N/A   Overcast
9:53 AM 64.0 °F 59.0 °F 84% 29.98 in 4.0 mi SSW 4.6 mph - N/A   Haze
10:02 AM 64.4 °F 59.0 °F 83% 29.98 in 4.0 mi SW 3.5 mph - N/A   Haze
10:53 AM 66.9 °F 60.1 °F 79% 29.97 in 7.0 mi Variable 4.6 mph - N/A   Overcast
10:55 AM 66.2 °F 60.8 °F 83% 29.97 in 10.0 mi South 4.6 mph - N/A   Mostly Cloudy
11:53 AM 69.1 °F 60.1 °F 73% 29.97 in 10.0 mi South 5.8 mph - N/A   Mostly Cloudy
12:53 PM 71.1 °F 60.1 °F 68% 29.96 in 10.0 mi Calm Calm - N/A   Mostly Cloudy
1:53 PM 72.0 °F 60.1 °F 66% 29.95 in 10.0 mi Variable 4.6 mph - N/A   Mostly Cloudy
2:53 PM 73.9 °F 57.9 °F 57% 29.95 in 10.0 mi Calm Calm - N/A   Mostly Cloudy
3:53 PM 73.9 °F 59.0 °F 59% 29.94 in 10.0 mi South 4.6 mph - N/A   Scattered Clouds
4:53 PM 73.9 °F 59.0 °F 59% 29.93 in 10.0 mi Calm Calm - 0.00 in   Mostly Cloudy
5:53 PM 75.9 °F 60.1 °F 58% 29.92 in 10.0 mi SE 3.5 mph - N/A   Mostly Cloudy
6:53 PM 77.0 °F 60.1 °F 56% 29.91 in 10.0 mi SW 3.5 mph - N/A   Scattered Clouds
7:53 PM 75.0 °F 57.9 °F 55% 29.91 in 10.0 mi SW 4.6 mph - N/A   Clear
8:53 PM 73.0 °F 59.0 °F 61% 29.91 in 10.0 mi South 5.8 mph - N/A   Scattered Clouds
9:53 PM 70.0 °F 59.0 °F 68% 29.92 in 10.0 mi SW 3.5 mph - N/A   Clear
10:53 PM 68.0 °F 57.0 °F 68% 29.92 in 10.0 mi Calm Calm - N/A   Clear
11:53 PM 64.9 °F 57.9 °F 78% 29.92 in 10.0 mi South 4.6 mph - N/A   Clear